[[{"header":{"parameterUnit":"m.s-1","parameterCategory":1,"la1":30.2991,"la2":30.254,"lo1":-89.0895,"lo2":-89.0444,"dy":0.0017,"dx":0.0017,"nx":28,"ny":28,"refTime":"2023-11-23T03:00:00:Z","depth":0,"parameterNumber":2,"parameterNumberName":"U-component_of_WINDS"},"data":[0,0,0,0,0,0,0,0,0,0,0,0,0,0,0,0,0,0,0,0,0,0,0,0,0,0,0,0,0,0,0,0,0,0,0,0,0,0,0,0,0,0,0,0,0,0,0,0,0,0,0,0,0,0,0,0,0,0,1.9778,1.9778,0,1.977,1.977,1.977,1.9739,1.9739,1.9738,1.9737,1.9729,1.9729,1.973,0,0,0,0,0,0,0,0,0,0,0,0,0,1.9767,1.9767,1.9778,1.9778,1.9777,1.977,1.977,1.977,1.974,1.9739,1.9738,1.9737,1.9729,1.9729,1.973,0,0,0,0,0,0,0,0,0,0,0,0,0,1.9767,1.9767,1.9778,1.9761,1.976,1.977,1.977,1.977,1.974,1.9739,1.9738,1.9737,1.9729,1.9729,1.973,1.9755,0,0,1.9732,1.9732,0,0,0,0,0,0,0,0,1.9767,1.9767,1.9764,1.9763,1.9761,1.9755,1.9763,1.9765,1.974,1.9747,1.9737,1.9736,1.9738,1.9738,1.9739,1.9754,1.9754,1.9732,1.9732,1.9733,1.9733,0,0,0,0,0,0,0,1.9767,1.9767,1.9775,1.9764,1.9762,1.9755,1.9754,1.9763,1.9749,1.9747,1.9744,1.9744,1.9737,1.9738,1.9739,1.9754,1.9732,1.9732,1.9733,1.9733,1.9791,1.9792,0,0,0,0,0,0,1.9769,1.9767,1.9775,1.9774,1.9761,1.9756,1.9755,1.9758,1.9749,1.9746,1.9745,1.9743,1.9738,1.9738,1.9738,1.9768,1.9733,1.9733,1.9734,1.979,1.9791,1.9793,0,0,0,0,0,0,1.9769,1.977,1.9775,1.977,1.977,1.9757,1.9761,1.9758,1.9759,1.9747,1.9745,1.9749,1.9737,1.9737,1.9751,1.9767,1.9733,1.9734,1.9789,1.9791,1.9792,1.9826,0,0,0,0,0,0,1.9769,1.977,1.9779,1.9771,1.9771,1.9788,1.9762,1.9759,1.976,1.9757,1.975,1.9748,1.9736,1.9751,1.9752,1.9767,1.9735,1.9787,1.979,1.9792,1.9824,1.9829,1.9833,0,0,0,0,0,1.9768,1.9788,1.978,1.9781,1.9782,1.9789,1.9789,1.9776,1.9762,1.9771,1.9764,1.9748,1.9765,1.9752,1.9754,1.9769,1.9786,1.9789,1.9791,1.9821,1.9828,1.9833,0,0,0,0,0,0,1.9798,1.9787,1.9777,1.9795,1.9793,1.9784,1.9795,1.9783,1.9785,1.9782,1.9765,1.9763,1.978,1.9776,1.9762,1.9794,1.9773,1.9776,1.9796,1.9802,1.9806,1.9807,1.9735,0,0,0,0,0,1.9807,1.9814,1.9804,1.982,1.982,1.9808,1.9811,1.9801,1.9798,1.9797,1.9791,1.9789,1.9794,1.9798,1.9801,1.9823,1.9822,1.9835,1.984,1.9844,1.9846,1.9859,1.9865,1.9801,1.9801,1.9801,0,0,1.9825,1.9819,1.9825,1.9826,1.9824,1.9832,1.9807,1.9816,1.9822,1.9798,1.9812,1.9807,1.9804,1.9823,1.983,1.982,1.9864,1.9847,1.985,1.9851,1.9862,1.9868,1.9874,1.9803,1.9803,1.9802,0,0,1.9861,1.9858,1.9872,1.9871,1.9868,1.986,1.9863,1.9856,1.9853,1.9866,1.9848,1.9856,1.9864,1.9863,1.9864,1.9903,1.9889,1.9905,1.993,1.9942,1.9947,1.9952,1.9966,1.9972,1.9907,1.9907,1.9908,0,1.9884,1.9895,1.9881,1.9892,1.9893,1.9873,1.9888,1.9887,1.9885,1.9887,1.9876,1.9887,1.9884,1.9902,1.9912,1.9913,1.9917,1.9905,1.9948,1.9952,1.9956,1.997,1.9975,1.9909,1.9909,1.9909,1.9909,0,1.9923,1.9931,1.9943,1.9943,1.9946,1.9959,1.9947,1.9952,1.9943,1.9936,1.9951,1.9946,1.995,1.9953,1.9943,1.9971,1.9965,1.9951,1.993,1.9964,1.9977,1.9982,1.9912,1.9912,1.9911,1.991,0,0,1.9977,1.997,1.9975,1.9975,1.9971,1.9978,1.999,1.9994,1.9999,1.9999,2.001,2.0019,2.0006,2.0007,1.9997,2.0008,2.0041,1.9993,1.9993,2.0002,2.0072,2.0083,2.0089,2.0032,2.0033,2.0033,2.0072,0,2.0012,2.0033,2.0021,2.0044,2.0052,2.0034,2.0045,2.0044,2.0039,2.0046,2.004,2.0047,2.003,2.003,2.004,2.0034,2.0054,2.0032,2.0042,2.0042,2.0043,2.0095,2.0106,2.0143,2.0077,2.0078,2.0079,0,2.0055,2.0059,2.0082,2.0079,2.0081,2.0092,2.0095,2.0101,2.0101,2.0096,2.0099,2.0087,2.0099,2.0079,2.0097,2.0082,2.0085,2.0083,2.0085,2.0085,2.0062,2.0097,2.0154,2.016,2.0086,2.0086,2.0085,0,2.0093,2.0103,2.0119,2.012,2.0115,2.0123,2.0122,2.012,2.0124,2.0127,2.013,2.0134,2.0137,2.0141,2.0131,2.0117,2.015,2.0129,2.0148,2.0148,2.0155,2.0154,2.0214,2.0157,2.0157,2.0157,2.0157,0,2.0134,2.0149,2.0136,2.0145,2.0162,2.015,2.0167,2.0164,2.0163,2.0172,2.0157,2.0166,2.0152,2.016,2.0152,2.0169,2.017,2.0167,2.0165,2.0169,2.0169,2.017,2.0168,2.0159,2.0158,2.0158,2.0158,0,2.0178,2.017,2.0186,2.0181,2.0181,2.0193,2.019,2.0199,2.0193,2.0205,2.0208,2.0199,2.0208,2.0198,2.0206,2.0201,2.0224,2.0217,2.0224,2.0222,2.0241,2.024,2.0303,2.0311,2.025,2.0251,2.0251,0,2.0204,2.0216,2.0213,2.0218,2.0218,2.0227,2.0231,2.022,2.0224,2.0226,2.0235,2.0243,2.0248,2.0263,2.0258,2.0264,2.0258,2.028,2.0259,2.0263,2.0259,2.0258,2.026,2.0284,2.0285,2.0285,2.0286,0,2.0252,2.0248,2.0254,2.026,2.0266,2.027,2.0272,2.0277,2.0266,2.0272,2.0282,2.0286,2.0295,2.0303,2.0308,2.0307,2.0295,2.0293,2.0298,2.0301,2.0305,2.0304,2.0236,2.0291,2.0291,2.029,2.029,2.029,2.0289,2.0298,2.0299,2.0307,2.0308,2.0311,2.032,2.0316,2.0324,2.033,2.0323,2.0335,2.0336,2.0341,2.0342,2.0351,2.0342,2.0349,2.035,2.0352,2.0355,2.0304,2.0352,2.0352,2.0352,2.0352,2.0352,0,2.0336,2.0336,2.0344,2.0348,2.0355,2.0344,2.0347,2.0353,2.0364,2.0366,2.0372,2.0383,2.0391,2.0388,2.0395,2.0403,2.0398,2.0405,2.0405,2.0405,2.0363,2.0358,2.041,2.041,2.041,2.041,2.041,2.041,2.0362,2.0378,2.0375,2.0392,2.0392,2.0403,2.0406,2.0409,2.0411,2.0424,2.0431,2.0429,2.0429,2.0436,2.0444,2.0443,2.0446,2.0456,2.0453,2.0413,2.0408,2.0402,2.0398,2.0457,2.0457,2.0494,2.0494,2.0495]},{"header":{"parameterUnit":"m.s-1","parameterCategory":1,"la1":30.2991,"la2":30.254,"lo1":-89.0895,"lo2":-89.0444,"dy":0.0017,"dx":0.0017,"nx":28,"ny":28,"refTime":"2023-11-23T03:00:00:Z","depth":0,"parameterNumber":3,"parameterNumberName":"V-component_of_WINDS"},"data":[0,0,0,0,0,0,0,0,0,0,0,0,0,0,0,0,0,0,0,0,0,0,0,0,0,0,0,0,0,0,0,0,0,0,0,0,0,0,0,0,0,0,0,0,0,0,0,0,0,0,0,0,0,0,0,0,0,0,-6.3727,-6.3729,0,-6.3852,-6.3853,-6.3854,-6.3849,-6.3847,-6.3845,-6.3844,-6.3966,-6.3971,-6.3976,0,0,0,0,0,0,0,0,0,0,0,0,0,-6.3481,-6.3485,-6.3727,-6.3729,-6.373,-6.3851,-6.3853,-6.3855,-6.3849,-6.3847,-6.3845,-6.3843,-6.3964,-6.397,-6.3976,0,0,0,0,0,0,0,0,0,0,0,0,0,-6.3595,-6.3487,-6.3727,-6.3742,-6.3745,-6.3851,-6.3853,-6.3855,-6.385,-6.3847,-6.3844,-6.3842,-6.3962,-6.397,-6.3977,-6.4075,0,0,-6.3999,-6.4002,0,0,0,0,0,0,0,0,-6.3588,-6.3604,-6.3738,-6.3741,-6.3744,-6.3832,-6.3811,-6.3929,-6.385,-6.381,-6.3844,-6.3841,-6.3923,-6.3934,-6.3963,-6.408,-6.4086,-6.4,-6.4004,-6.4007,-6.401,0,0,0,0,0,0,0,-6.358,-6.3598,-6.3776,-6.374,-6.3744,-6.3742,-6.3755,-6.3833,-6.3879,-6.3813,-6.3813,-6.3828,-6.3924,-6.3956,-6.3965,-6.4087,-6.4,-6.4006,-6.4011,-6.4014,-6.4293,-6.4296,0,0,0,0,0,0,-6.357,-6.3592,-6.3772,-6.378,-6.3658,-6.3748,-6.3763,-6.3806,-6.3879,-6.3887,-6.383,-6.3827,-6.3944,-6.3957,-6.397,-6.409,-6.4007,-6.4014,-6.4018,-6.429,-6.4294,-6.4297,0,0,0,0,0,0,-6.3565,-6.3586,-6.3767,-6.3686,-6.3709,-6.3755,-6.3804,-6.381,-6.3842,-6.3892,-6.3899,-6.3854,-6.3943,-6.3959,-6.4049,-6.4094,-6.4018,-6.4024,-6.4287,-6.4291,-6.4296,-6.4331,0,0,0,0,0,0,-6.3557,-6.3584,-6.3622,-6.3687,-6.3713,-6.3846,-6.3807,-6.3815,-6.3855,-6.3852,-6.3916,-6.3924,-6.3942,-6.4038,-6.4057,-6.4103,-6.403,-6.4283,-6.4289,-6.4294,-6.4326,-6.4336,-6.4345,0,0,0,0,0,-6.3549,-6.3626,-6.3624,-6.3646,-6.3762,-6.3848,-6.3863,-6.3884,-6.3858,-6.3897,-6.393,-6.3922,-6.4087,-6.4048,-6.4068,-6.4117,-6.428,-6.4287,-6.4294,-6.4322,-6.4334,-6.4344,0,0,0,0,0,0,-6.3563,-6.3634,-6.3634,-6.3734,-6.3786,-6.3847,-6.3896,-6.3896,-6.3955,-6.395,-6.3971,-6.3986,-6.4076,-6.4106,-6.4061,-6.4216,-6.418,-6.4191,-6.4194,-6.4206,-6.4215,-6.4206,-6.4036,0,0,0,0,0,-6.3578,-6.3643,-6.3702,-6.3785,-6.3811,-6.385,-6.3888,-6.39,-6.3953,-6.3974,-6.4013,-6.4064,-6.4127,-6.4168,-6.4229,-6.433,-6.4344,-6.4374,-6.4384,-6.4391,-6.44,-6.4457,-6.4471,-6.432,-6.432,-6.4319,0,0,-6.3609,-6.3656,-6.3696,-6.3789,-6.383,-6.3897,-6.3868,-6.3938,-6.3988,-6.3984,-6.4072,-6.4103,-6.4161,-6.4258,-6.4302,-6.4285,-6.4446,-6.44,-6.4405,-6.4411,-6.4466,-6.448,-6.4493,-6.4324,-6.4323,-6.4323,0,0,-6.37,-6.3743,-6.3817,-6.386,-6.3924,-6.3949,-6.3967,-6.403,-6.4051,-6.414,-6.414,-6.4198,-6.4306,-6.4348,-6.4384,-6.4494,-6.4489,-6.4513,-6.4562,-6.4617,-6.4629,-6.464,-6.4679,-6.4693,-6.4522,-6.4522,-6.4522,0,-6.373,-6.3832,-6.3855,-6.3928,-6.3969,-6.3971,-6.4047,-6.4086,-6.4166,-6.4194,-6.4174,-6.4312,-6.4351,-6.4458,-6.4485,-6.4514,-6.4535,-6.4505,-6.4626,-6.4637,-6.4647,-6.4685,-6.47,-6.4525,-6.4524,-6.4524,-6.4524,0,-6.3866,-6.3937,-6.3989,-6.4069,-6.4116,-6.4189,-6.4223,-6.4268,-6.4276,-6.4303,-6.4395,-6.4442,-6.4514,-6.454,-6.4548,-6.4649,-6.4636,-6.4621,-6.4584,-6.4664,-6.47,-6.4714,-6.4528,-6.4527,-6.4527,-6.4526,0,0,-6.3968,-6.4062,-6.408,-6.4117,-6.4189,-6.4243,-6.4317,-6.4389,-6.4428,-6.4483,-6.4545,-6.4638,-6.4625,-6.4666,-6.4678,-6.4727,-6.4812,-6.4706,-6.4707,-6.4724,-6.4927,-6.4938,-6.4955,-6.481,-6.4813,-6.4815,-6.4922,0,-6.4066,-6.4199,-6.4224,-6.4339,-6.4405,-6.4409,-6.4474,-6.4524,-6.4552,-6.4611,-6.4641,-6.4708,-6.4685,-6.471,-6.4758,-6.4791,-6.4853,-6.4784,-6.4867,-6.487,-6.4852,-6.4973,-6.4985,-6.5084,-6.4936,-6.4939,-6.494,0,-6.4199,-6.4261,-6.4383,-6.4449,-6.4477,-6.4535,-6.4604,-6.466,-6.4718,-6.4735,-6.4782,-6.4789,-6.4866,-6.4827,-6.4932,-6.4885,-6.492,-6.4942,-6.4946,-6.4954,-6.491,-6.4985,-6.5116,-6.5131,-6.4963,-6.4961,-6.4959,0,-6.4261,-6.4375,-6.4464,-6.4495,-6.4573,-6.4614,-6.4647,-6.4703,-6.4745,-6.4805,-6.4833,-6.49,-6.4937,-6.4988,-6.5014,-6.4983,-6.5118,-6.508,-6.5133,-6.5133,-6.5161,-6.5159,-6.53,-6.5184,-6.5184,-6.5184,-6.5183,0,-6.4369,-6.4444,-6.4493,-6.4548,-6.4632,-6.4659,-6.4741,-6.4774,-6.4824,-6.4884,-6.4892,-6.4948,-6.4979,-6.5039,-6.506,-6.5144,-6.516,-6.5176,-6.518,-6.5175,-6.5174,-6.5199,-6.5192,-6.5188,-6.5187,-6.5186,-6.5185,0,-6.4453,-6.4489,-6.4586,-6.4653,-6.4671,-6.4731,-6.4787,-6.484,-6.4869,-6.4945,-6.4965,-6.501,-6.5082,-6.5113,-6.52,-6.5214,-6.5311,-6.5311,-6.5293,-6.5294,-6.5346,-6.5341,-6.5507,-6.5531,-6.54,-6.5401,-6.5402,0,-6.4519,-6.4577,-6.4651,-6.4694,-6.473,-6.4797,-6.4841,-6.487,-6.4916,-6.4987,-6.5032,-6.5104,-6.5164,-6.5279,-6.5318,-6.5386,-6.5387,-6.5441,-6.5397,-6.5391,-6.5388,-6.5385,-6.5391,-6.5449,-6.545,-6.5451,-6.5452,0,-6.4633,-6.4649,-6.4713,-6.4785,-6.4838,-6.4895,-6.4951,-6.4984,-6.5022,-6.5073,-6.5148,-6.5195,-6.5286,-6.5358,-6.5429,-6.5462,-6.5464,-6.5466,-6.5482,-6.5477,-6.5464,-6.5472,-6.5315,-6.5461,-6.546,-6.546,-6.5459,-6.5459,-6.471,-6.4763,-6.4824,-6.4896,-6.4942,-6.4995,-6.5048,-6.5085,-6.5149,-6.5227,-6.524,-6.532,-6.5377,-6.5473,-6.551,-6.5572,-6.5558,-6.5581,-6.5587,-6.5592,-6.5596,-6.5455,-6.5585,-6.5585,-6.5584,-6.5584,-6.5584,0,-6.4825,-6.4866,-6.4932,-6.5011,-6.5068,-6.5067,-6.5129,-6.5176,-6.5247,-6.5302,-6.5361,-6.5448,-6.5519,-6.5565,-6.5636,-6.5677,-6.568,-6.5695,-6.5692,-6.57,-6.5604,-6.5583,-6.5692,-6.5692,-6.5692,-6.5692,-6.5692,-6.5692,-6.4892,-6.4981,-6.5005,-6.5117,-6.5157,-6.5237,-6.5273,-6.5321,-6.5365,-6.5463,-6.5522,-6.5553,-6.5604,-6.568,-6.5744,-6.5756,-6.5782,-6.5798,-6.5809,-6.5718,-6.5707,-6.5696,-6.5677,-6.5803,-6.5804,-6.59,-6.5901,-6.5902]}]]